[[{"header":{"parameterUnit":"m.s-1","parameterCategory":1,"la1":30.2991,"la2":30.254,"lo1":-89.0895,"lo2":-89.0444,"dy":0.0017,"dx":0.0017,"nx":28,"ny":28,"refTime":"2023-10-08T21:00:00:Z","depth":0,"parameterNumber":2,"parameterNumberName":"U-component_of_WINDS"},"data":[0,0,0,0,0,0,0,0,0,0,0,0,0,0,0,0,0,0,0,0,0,0,0,0,0,0,0,0,0,0,0,0,0,0,0,0,0,0,0,0,0,0,0,0,0,0,0,0,0,0,0,0,0,0,0,0,0,0,-0.3898,-0.3897,0,-0.3824,-0.3823,-0.3822,-0.3772,-0.3772,-0.3772,-0.3771,-0.3696,-0.3694,-0.3692,0,0,0,0,0,0,0,0,0,0,0,0,0,-0.3998,-0.3997,-0.3898,-0.3897,-0.3896,-0.3824,-0.3823,-0.3822,-0.3773,-0.3772,-0.3772,-0.3771,-0.3696,-0.3694,-0.3692,0,0,0,0,0,0,0,0,0,0,0,0,0,-0.3943,-0.3996,-0.3898,-0.3863,-0.3859,-0.3824,-0.3823,-0.3821,-0.3773,-0.3772,-0.3772,-0.3771,-0.3697,-0.3694,-0.3692,-0.3686,0,0,-0.3684,-0.3683,0,0,0,0,0,0,0,0,-0.3946,-0.3939,-0.3869,-0.3865,-0.3861,-0.3807,-0.383,-0.3776,-0.3773,-0.3805,-0.3771,-0.3771,-0.3733,-0.3727,-0.3715,-0.3682,-0.3679,-0.3684,-0.3682,-0.3681,-0.368,0,0,0,0,0,0,0,-0.395,-0.3942,-0.3869,-0.3868,-0.3863,-0.3851,-0.3843,-0.382,-0.3773,-0.3803,-0.3799,-0.3791,-0.3731,-0.3717,-0.3712,-0.3678,-0.3684,-0.3682,-0.368,-0.3679,-0.3639,-0.364,0,0,0,0,0,0,-0.3959,-0.3945,-0.3871,-0.3866,-0.3903,-0.385,-0.384,-0.3825,-0.3773,-0.3765,-0.3791,-0.3789,-0.3722,-0.3715,-0.371,-0.3701,-0.3681,-0.3679,-0.3677,-0.3639,-0.3639,-0.364,0,0,0,0,0,0,-0.3961,-0.3953,-0.3874,-0.3905,-0.3894,-0.3848,-0.3831,-0.3823,-0.381,-0.3764,-0.3756,-0.3786,-0.3721,-0.3713,-0.3693,-0.3697,-0.3678,-0.3675,-0.3638,-0.3639,-0.364,-0.3682,0,0,0,0,0,0,-0.3965,-0.3954,-0.3951,-0.3905,-0.3892,-0.3858,-0.3832,-0.3822,-0.3806,-0.3802,-0.3757,-0.3749,-0.372,-0.3697,-0.369,-0.3693,-0.3673,-0.3638,-0.3638,-0.3639,-0.368,-0.3684,-0.3688,0,0,0,0,0,-0.3968,-0.3966,-0.3951,-0.3942,-0.3888,-0.3858,-0.3851,-0.3817,-0.3806,-0.3803,-0.3774,-0.3751,-0.3698,-0.3695,-0.3687,-0.369,-0.3637,-0.3638,-0.3639,-0.3678,-0.3683,-0.3687,0,0,0,0,0,0,-0.4013,-0.3959,-0.3942,-0.3925,-0.3897,-0.385,-0.3845,-0.3823,-0.3798,-0.3795,-0.3754,-0.3745,-0.3729,-0.3707,-0.3705,-0.3682,-0.3665,-0.3664,-0.3697,-0.3701,-0.3705,-0.3711,-0.3671,0,0,0,0,0,-0.4021,-0.4001,-0.3955,-0.3944,-0.3931,-0.3891,-0.3876,-0.3853,-0.3822,-0.381,-0.3779,-0.3751,-0.3728,-0.3713,-0.3689,-0.3676,-0.3667,-0.3674,-0.3678,-0.3682,-0.3682,-0.3675,-0.3678,-0.3643,-0.3643,-0.3643,0,0,-0.4037,-0.4005,-0.3995,-0.3952,-0.3928,-0.3909,-0.3881,-0.3862,-0.3848,-0.3807,-0.3786,-0.3763,-0.3728,-0.3712,-0.3703,-0.3693,-0.3689,-0.3683,-0.3686,-0.3684,-0.3676,-0.368,-0.3683,-0.3644,-0.3644,-0.3644,0,0,-0.4057,-0.403,-0.4019,-0.3995,-0.3958,-0.3931,-0.3929,-0.3886,-0.3869,-0.3847,-0.3817,-0.38,-0.376,-0.3737,-0.372,-0.3733,-0.3711,-0.3726,-0.3746,-0.374,-0.3743,-0.3745,-0.3751,-0.3753,-0.3726,-0.3727,-0.3727,0,-0.4081,-0.4051,-0.4015,-0.3999,-0.3981,-0.3944,-0.3933,-0.3911,-0.3869,-0.3858,-0.3847,-0.3798,-0.3772,-0.3751,-0.3754,-0.3741,-0.3737,-0.3731,-0.3745,-0.3747,-0.3749,-0.3754,-0.3756,-0.3729,-0.3729,-0.3728,-0.3728,0,-0.4084,-0.4064,-0.4059,-0.402,-0.4001,-0.3987,-0.395,-0.3936,-0.3915,-0.389,-0.3869,-0.3836,-0.3806,-0.3799,-0.3777,-0.3775,-0.377,-0.3753,-0.3734,-0.3755,-0.3759,-0.376,-0.3732,-0.3731,-0.373,-0.373,0,0,-0.413,-0.4071,-0.407,-0.4052,-0.4009,-0.3993,-0.3978,-0.3948,-0.3938,-0.391,-0.3897,-0.3865,-0.385,-0.3831,-0.3806,-0.3801,-0.3815,-0.3784,-0.3783,-0.3792,-0.3811,-0.3825,-0.3828,-0.38,-0.38,-0.38,-0.3815,0,-0.4144,-0.4114,-0.4082,-0.4064,-0.4046,-0.4011,-0.3997,-0.397,-0.3947,-0.3928,-0.3902,-0.388,-0.3861,-0.3849,-0.3842,-0.3814,-0.3818,-0.3813,-0.3788,-0.3787,-0.3799,-0.383,-0.3844,-0.3859,-0.3816,-0.3816,-0.3816,0,-0.4156,-0.413,-0.4111,-0.4071,-0.4062,-0.4051,-0.4022,-0.4004,-0.3973,-0.3956,-0.3936,-0.391,-0.3893,-0.3877,-0.3854,-0.3851,-0.3839,-0.3824,-0.3824,-0.3821,-0.3804,-0.3828,-0.3863,-0.3866,-0.3818,-0.3818,-0.3818,0,-0.4193,-0.4153,-0.4137,-0.4122,-0.4075,-0.4068,-0.4048,-0.4017,-0.4002,-0.3976,-0.3966,-0.3939,-0.3925,-0.3905,-0.3873,-0.3864,-0.3854,-0.3835,-0.384,-0.3841,-0.384,-0.3841,-0.3874,-0.3831,-0.3831,-0.3831,-0.3831,0,-0.4212,-0.4202,-0.4153,-0.4143,-0.4131,-0.4094,-0.4083,-0.406,-0.4032,-0.4018,-0.3986,-0.3973,-0.3931,-0.3913,-0.3888,-0.3874,-0.3867,-0.3854,-0.3848,-0.3857,-0.3859,-0.3849,-0.3848,-0.3832,-0.3831,-0.3831,-0.3831,0,-0.4251,-0.4218,-0.4198,-0.4155,-0.4144,-0.4137,-0.4101,-0.409,-0.4065,-0.4047,-0.4041,-0.4001,-0.3979,-0.3945,-0.3913,-0.3896,-0.3886,-0.3875,-0.3897,-0.3893,-0.3901,-0.3902,-0.393,-0.3933,-0.3888,-0.3888,-0.3888,0,-0.4266,-0.4258,-0.4214,-0.4202,-0.4184,-0.4164,-0.4149,-0.4113,-0.4098,-0.4063,-0.4057,-0.4032,-0.4011,-0.3977,-0.3946,-0.3921,-0.391,-0.3922,-0.3906,-0.3917,-0.3912,-0.3913,-0.3913,-0.3926,-0.3926,-0.3927,-0.3927,0,-0.4297,-0.4281,-0.426,-0.4233,-0.4216,-0.4193,-0.4169,-0.4161,-0.412,-0.4105,-0.4082,-0.4066,-0.4033,-0.4009,-0.3981,-0.3961,-0.3938,-0.3933,-0.3933,-0.3943,-0.3957,-0.3951,-0.3908,-0.3932,-0.3932,-0.3931,-0.3931,-0.3931,-0.4325,-0.4316,-0.4285,-0.4263,-0.4241,-0.4219,-0.4208,-0.4181,-0.4161,-0.4132,-0.4112,-0.4091,-0.4061,-0.402,-0.4002,-0.3985,-0.3975,-0.3975,-0.3975,-0.3976,-0.398,-0.3959,-0.398,-0.3979,-0.3979,-0.3979,-0.3979,0,-0.4355,-0.4333,-0.4313,-0.4281,-0.4264,-0.4243,-0.4216,-0.4203,-0.4185,-0.4159,-0.4139,-0.4113,-0.4091,-0.4058,-0.4033,-0.4026,-0.4015,-0.4021,-0.4022,-0.4018,-0.399,-0.3993,-0.403,-0.403,-0.403,-0.403,-0.403,-0.403,-0.4369,-0.4353,-0.4334,-0.4308,-0.4286,-0.4265,-0.4251,-0.4232,-0.4211,-0.4184,-0.4165,-0.4144,-0.4116,-0.4089,-0.4068,-0.4059,-0.4052,-0.4061,-0.4049,-0.4024,-0.4019,-0.4015,-0.4017,-0.406,-0.406,-0.4078,-0.4078,-0.4079]},{"header":{"parameterUnit":"m.s-1","parameterCategory":1,"la1":30.2991,"la2":30.254,"lo1":-89.0895,"lo2":-89.0444,"dy":0.0017,"dx":0.0017,"nx":28,"ny":28,"refTime":"2023-10-08T21:00:00:Z","depth":0,"parameterNumber":3,"parameterNumberName":"V-component_of_WINDS"},"data":[0,0,0,0,0,0,0,0,0,0,0,0,0,0,0,0,0,0,0,0,0,0,0,0,0,0,0,0,0,0,0,0,0,0,0,0,0,0,0,0,0,0,0,0,0,0,0,0,0,0,0,0,0,0,0,0,0,0,2.1132,2.1132,0,2.1085,2.1084,2.1084,2.1111,2.1113,2.1114,2.1115,2.106,2.1057,2.1054,0,0,0,0,0,0,0,0,0,0,0,0,0,2.1239,2.1237,2.1132,2.1132,2.1131,2.1085,2.1084,2.1084,2.1111,2.1113,2.1114,2.1116,2.1061,2.1057,2.1054,0,0,0,0,0,0,0,0,0,0,0,0,0,2.1192,2.1236,2.1132,2.1139,2.1139,2.1085,2.1084,2.1084,2.1111,2.1113,2.1115,2.1117,2.1062,2.1058,2.1054,2.0988,0,0,2.1041,2.1039,0,0,0,0,0,0,0,0,2.1195,2.1188,2.1139,2.1139,2.1139,2.1106,2.1102,2.1051,2.111,2.1121,2.1115,2.1118,2.1073,2.1068,2.1055,2.0985,2.0983,2.1041,2.1038,2.1037,2.1035,0,0,0,0,0,0,0,2.1198,2.119,2.1113,2.1138,2.1138,2.1142,2.1138,2.1092,2.1086,2.1121,2.1122,2.1117,2.1073,2.1059,2.1054,2.0982,2.1041,2.1037,2.1035,2.1033,2.0854,2.0852,0,0,0,0,0,0,2.1202,2.1193,2.1115,2.1112,2.1172,2.1139,2.1134,2.1114,2.1087,2.1085,2.1115,2.1118,2.1065,2.1058,2.1052,2.0971,2.1037,2.1033,2.103,2.0856,2.0854,2.0851,0,0,0,0,0,0,2.1204,2.1194,2.1117,2.1153,2.1143,2.1135,2.1113,2.1112,2.1098,2.1083,2.1081,2.1102,2.1066,2.1057,2.1004,2.097,2.1031,2.1027,2.0859,2.0856,2.0852,2.0811,0,0,0,0,0,0,2.1207,2.1195,2.1171,2.1152,2.1141,2.1071,2.1111,2.111,2.1091,2.1095,2.107,2.1067,2.1067,2.101,2.1,2.0965,2.1024,2.0862,2.0858,2.0853,2.0815,2.0806,2.0799,0,0,0,0,0,2.121,2.116,2.117,2.116,2.1112,2.1069,2.1063,2.1065,2.1089,2.1064,2.1054,2.1068,2.0976,2.1004,2.0993,2.0957,2.0864,2.0859,2.0854,2.0818,2.0808,2.0799,0,0,0,0,0,0,2.1173,2.1158,2.1169,2.1111,2.1092,2.1074,2.1043,2.1054,2.1026,2.103,2.1033,2.1026,2.097,2.0958,2.099,2.0891,2.0923,2.0915,2.09,2.089,2.0882,2.0885,2.1021,0,0,0,0,0,2.1159,2.1128,2.1115,2.1065,2.1055,2.1051,2.1032,2.1036,2.1015,2.1006,2.0993,2.0969,2.0935,2.0912,2.088,2.0814,2.0808,2.0784,2.0776,2.0769,2.0761,2.0724,2.0713,2.0834,2.0834,2.0834,0,0,2.1128,2.1115,2.1095,2.1058,2.1043,2.1008,2.1043,2.1005,2.0979,2.0999,2.0948,2.0937,2.0911,2.0851,2.0824,2.0839,2.0727,2.0762,2.0757,2.0753,2.0717,2.0706,2.0696,2.0831,2.0831,2.0832,0,0,2.1053,2.1042,2.0999,2.0984,2.0962,2.0959,2.0949,2.093,2.0924,2.0873,2.0887,2.0855,2.0796,2.0777,2.0759,2.0678,2.0689,2.0667,2.0624,2.0587,2.0577,2.0569,2.0537,2.0527,2.066,2.066,2.066,0,2.1016,2.0967,2.0974,2.0935,2.0917,2.0937,2.0892,2.0877,2.0844,2.083,2.0849,2.0776,2.076,2.0694,2.0674,2.066,2.0646,2.0669,2.0579,2.057,2.0562,2.0532,2.0521,2.0657,2.0658,2.0658,2.0658,0,2.0922,2.0887,2.0854,2.0825,2.0804,2.0762,2.0761,2.0738,2.0744,2.0738,2.0685,2.0667,2.0631,2.0616,2.0621,2.055,2.0561,2.0579,2.0611,2.0548,2.052,2.0508,2.0654,2.0655,2.0655,2.0656,0,0,2.082,2.0797,2.0784,2.0771,2.0748,2.072,2.0679,2.0646,2.0625,2.0602,2.0565,2.0516,2.0533,2.0513,2.0515,2.0484,2.0418,2.0506,2.0505,2.0488,2.0337,2.0321,2.0308,2.0426,2.0424,2.0422,2.0338,0,2.0742,2.0672,2.0677,2.061,2.0576,2.0595,2.0558,2.0539,2.0533,2.0502,2.0495,2.0459,2.0485,2.0473,2.0443,2.0432,2.0387,2.0439,2.0389,2.0387,2.0392,2.0294,2.0278,2.0199,2.0327,2.0325,2.0324,0,2.0642,2.0618,2.0547,2.053,2.0516,2.0483,2.0453,2.0424,2.0402,2.04,2.0378,2.0386,2.0341,2.0377,2.0313,2.0348,2.0329,2.032,2.0317,2.0311,2.035,2.0282,2.0174,2.0162,2.0307,2.0309,2.031,0,2.0572,2.0522,2.0473,2.0461,2.044,2.0416,2.0406,2.0386,2.0366,2.0339,2.0325,2.0292,2.0273,2.0247,2.0245,2.0271,2.018,2.0216,2.0175,2.0174,2.0152,2.0153,2.0038,2.0144,2.0144,2.0144,2.0144,0,2.0484,2.0439,2.0442,2.0411,2.0361,2.0368,2.0317,2.0309,2.0291,2.0258,2.0272,2.0239,2.024,2.0207,2.0205,2.0151,2.0143,2.0138,2.0138,2.0135,2.0136,2.0121,2.0125,2.0141,2.0142,2.0142,2.0143,0,2.0396,2.0397,2.0344,2.0329,2.0324,2.0288,2.0274,2.0243,2.024,2.0197,2.0187,2.0179,2.014,2.0137,2.0091,2.009,2.0025,2.0031,2.0032,2.0033,1.9991,1.9994,1.9859,1.9841,1.9961,1.996,1.9959,0,2.0339,2.0305,2.0287,2.0267,2.0255,2.0222,2.0202,2.0207,2.0185,2.0157,2.013,2.0093,2.0064,2.0,1.9989,1.9954,1.9958,1.9913,1.9952,1.9951,1.9954,1.9956,1.9951,1.9905,1.9903,1.9902,1.9902,0,2.0235,2.0237,2.0209,2.018,2.0156,2.0133,2.0112,2.0094,2.0096,2.007,2.0032,2.0009,1.9963,1.9925,1.9891,1.9878,1.9888,1.989,1.9878,1.9874,1.9875,1.9872,2.0009,1.9892,1.9893,1.9894,1.9894,1.9895,2.0159,2.013,2.0113,2.008,2.0065,2.0045,2.0016,2.0009,1.9978,1.9943,1.9947,1.9904,1.9882,1.9837,1.9821,1.9786,1.98,1.9784,1.9779,1.9774,1.9769,1.9883,1.978,1.978,1.978,1.978,1.978,0,2.0055,2.0045,2.0015,1.9986,1.996,1.9976,1.9953,1.9929,1.9892,1.9872,1.9843,1.9798,1.9762,1.9749,1.9712,1.9687,1.969,1.9677,1.9677,1.9673,1.9759,1.9772,1.9674,1.9674,1.9674,1.9674,1.9674,1.9674,1.9997,1.9948,1.9948,1.9891,1.9881,1.9841,1.9826,1.9806,1.979,1.974,1.9711,1.9704,1.9685,1.9648,1.9614,1.9611,1.9596,1.9579,1.9578,1.9657,1.9668,1.9678,1.969,1.9576,1.9576,1.9495,1.9494,1.9494]}]]